Location: Nemiskam
(49.4820°N, 111.2775°W)
Time: 09:01:23
(UTC+00:00)

Envisat - Pass Details

Date: 01 December 2022
Orbit: 763 x 765 km, 98.2° (Epoch: 28 January)

Event Time Altitude Azimuth Distance (km) Brightness Sun altitude
Rises 10:35:19 0° 25° (NNE) 3,245 6.7 -41.9°
Reaches altitude 10° 10:38:10 10° 41° (NE) 2,313 6.0 -41.5°
Enters shadow 10:39:21 15° 51° (NE) 1,999 5.6 -41.3°
